CW8095 Weather Reports


time (UTC)temp
F
wind
direction
speed
knots
gust
knots
rain 1hr
in
rain 24hr
in
rain mn
in
humidity
%
barometer
mb
20260505223517 94 155 2.6 7.8 0.00 0.00 0.00 46 1003.8
20260505222527 94 150 3.5 8.7 0.00 0.00 0.00 46 1003.7
20260505221522 95 152 4.3 11.3 0.00 0.00 0.00 45 1003.7
20260505220517 95 170 3.5 8.7 0.00 0.00 0.00 44 1003.6
20260505215528 96 125 1.7 6.1 0.00 0.00 0.00 44 1003.6
20260505214522 96 173 2.6 9.6 0.00 0.00 0.00 44 1003.8
20260505213517 96 184 2.6 7.8 0.00 0.00 0.00 44 1003.7
20260505212526 96 155 2.6 7.0 0.00 0.00 0.00 43 1003.9
20260505211520 97 194 3.5 7.8 0.00 0.00 0.00 44 1004.0
20260505210535 96 151 2.6 7.0 0.00 0.00 0.00 44 1004.3
20260505205525 96 158 3.5 8.7 0.00 0.00 0.00 44 1004.3
20260505204517 94 164 2.6 8.7 0.00 0.00 0.00 45 1004.2
20260505203527 96 178 3.5 9.6 0.00 0.00 0.00 43 1004.7
20260505202520 96 142 1.7 7.8 0.00 0.00 0.00 44 1004.7
20260505201515 95 129 1.7 11.3 0.00 0.00 0.00 44 1004.8
20260505200524 94 129 1.7 7.8 0.00 0.00 0.00 46 1004.9
20260505195519 93 133 3.5 8.7 0.00 0.00 0.00 46 1004.9
20260505194529 93 164 2.6 8.7 0.00 0.00 0.00 47 1004.8
20260505193524 93 156 3.5 12.2 0.00 0.00 0.00 47 1004.9
20260505192520 92 177 5.2 13.9 0.00 0.00 0.00 48 1005.0
20260505191530 92 151 4.3 15.6 0.00 0.00 0.00 48 1005.0
20260505190545 92 161 4.3 14.8 0.00 0.00 0.00 51 1005.2
20260505185540 92 168 4.3 11.3 0.00 0.00 0.00 51 1005.3
20260505184515 92 151 4.3 12.2 0.00 0.00 0.00 50 1005.5
20260505183525 92 142 4.3 14.8 0.00 0.00 0.00 49 1005.5
20260505182540 92 121 2.6 7.8 0.00 0.00 0.00 51 1005.6
20260505181516 91 157 4.3 13.0 0.00 0.00 0.00 52 1005.6
20260505180525 91 162 2.6 9.6 0.00 0.00 0.00 51 1005.6
20260505175540 91 150 4.3 9.6 0.00 0.00 0.00 52 1005.6
20260505174516 89 165 5.2 16.5 0.00 0.00 0.00 54 1005.7
20260505173526 89 173 3.5 12.2 0.00 0.00 0.00 53 1005.8
20260505172601 89 148 3.5 9.6 0.00 0.00 0.00 54 1005.6
20260505171516 89 149 3.5 9.6 0.00 0.00 0.00 55 1005.8
20260505170526 88 167 3.5 13.9 0.00 0.00 0.00 56 1005.7
20260505165521 86 147 4.3 11.3 0.00 0.00 0.00 57 1005.6
20260505164516 86 181 6.1 13.9 0.00 0.00 0.00 58 1005.4
20260505163525 85 153 5.2 12.2 0.00 0.00 0.00 59 1005.3
20260505162520 85 169 7.0 18.2 0.00 0.00 0.00 59 1005.4
20260505161528 86 173 6.1 14.8 0.00 0.00 0.00 59 1005.7
20260505160521 84 162 5.2 14.8 0.00 0.00 0.00 61 1005.6
20260505152527 82 151 5.2 13.0 0.00 0.00 0.00 64 1005.9
20260505151601 82 167 5.2 13.0 0.00 0.00 0.00 65 1005.8
20260505150516 80 184 7.0 19.1 0.00 0.00 0.00 67 1005.7
20260505140516 78 164 5.2 12.2 0.00 0.00 0.00 70 1005.4
20260505124521 71 171 3.5 12.2 0.00 0.00 0.00 83 1005.0
20260505123516 71 171 3.5 8.7 0.00 0.00 0.00 84 1004.9
20260505122546 70 191 5.2 12.2 0.00 0.00 0.00 85 1004.9
20260505121540 70 172 5.2 12.2 0.00 0.00 0.00 85 1004.7
20260505120529 69 177 4.3 11.3 0.00 0.00 0.00 86 1004.5
20260505115523 69 162 5.2 11.3 0.00 0.00 0.00 87 1004.7
20260505114518 69 176 5.2 12.2 0.00 0.00 0.00 87 1004.5
20260505113528 69 169 5.2 9.6 0.00 0.00 0.00 87 1004.4
20260505112523 69 175 5.2 13.0 0.00 0.00 0.00 87 1004.6
20260505111539 69 168 5.2 12.2 0.00 0.00 0.00 86 1004.4
20260505110529 69 180 5.2 13.0 0.00 0.00 0.00 86 1004.2
20260505101600 70 184 6.1 13.9 0.00 0.00 0.00 84 1004.5
20260505100530 70 159 5.2 13.0 0.00 0.00 0.00 83 1004.4
20260505095524 71 181 5.2 15.6 0.00 0.00 0.00 83 1004.3
20260505094520 71 165 6.1 14.8 0.00 0.00 0.00 82 1004.5
20260505093530 71 160 5.2 16.5 0.00 0.00 0.00 82 1004.5
20260505092605 71 162 6.1 18.2 0.00 0.00 0.00 83 1004.6
20260505091520 71 168 4.3 9.6 0.00 0.00 0.00 83 1004.8
20260505090515 71 172 4.3 12.2 0.00 0.00 0.00 83 1004.8
20260505085525 71 166 5.2 12.2 0.00 0.00 0.00 82 1004.7
20260505084520 71 156 6.1 16.5 0.00 0.00 0.00 82 1004.7
20260505083515 71 165 5.2 13.9 0.00 0.00 0.00 82 1004.8
20260505082525 71 176 4.3 12.2 0.00 0.00 0.00 82 1004.8
20260505081519 71 179 4.3 12.2 0.00 0.00 0.00 81 1004.9
20260505080549 71 178 6.1 16.5 0.00 0.00 0.00 81 1005.0
20260505075524 71 178 6.1 12.2 0.00 0.00 0.00 81 1005.2
20260505074519 71 172 5.2 12.2 0.00 0.00 0.00 80 1005.2
20260505073529 71 173 6.1 14.8 0.00 0.00 0.00 80 1005.3
20260505072518 71 173 7.0 13.9 0.00 0.00 0.00 80 1005.6
20260505071528 72 166 6.1 13.9 0.00 0.00 0.00 79 1005.7
20260505070523 72 173 6.1 15.6 0.00 0.00 0.00 79 1005.9
20260505065520 72 156 5.2 13.0 0.00 0.00 0.00 78 1006.0
20260505064518 72 171 5.2 14.8 0.00 0.00 0.00 78 1006.2
20260505063550 72 176 5.2 11.3 0.00 0.00 0.00 77 1006.3
20260505062533 72 170 5.2 13.0 0.00 0.00 0.00 77 1006.3
20260505061532 72 158 5.2 11.3 0.00 0.00 0.00 76 1006.5
20260505060531 73 174 5.2 13.9 0.00 0.00 0.00 75 1006.2
20260505055532 73 163 4.3 9.6 0.00 0.00 0.00 74 1006.1
20260505054526 73 165 3.5 9.6 0.00 0.00 0.00 73 1006.2
20260505053523 73 160 3.5 7.0 0.00 0.00 0.00 72 1006.2
20260505053041 73 165 3.5 11.3 0.00 0.00 0.00 72 1006.5
20260505052032 74 165 3.5 7.0 0.00 0.00 0.00 71 1006.5
20260505051044 74 162 3.5 9.6 0.00 0.00 0.00 70 1006.5
20260505041042 75 169 4.3 13.0 0.00 0.00 0.00 68 1006.6
20260505040017 75 170 3.5 11.3 0.00 0.00 0.00 68 1006.7
20260505035027 75 173 4.3 11.3 0.00 0.00 0.00 68 1006.7
20260505034026 75 170 5.2 13.9 0.00 0.00 0.00 68 1006.4
20260505033021 75 167 4.3 13.9 0.00 0.00 0.00 68 1006.5
20260505032028 75 164 4.3 9.6 0.00 0.00 0.00 68 1006.5
20260505031045 75 169 4.3 11.3 0.00 0.00 0.00 67 1006.8
20260505030022 75 168 4.3 9.6 0.00 0.00 0.00 67 1006.6
20260505025017 75 160 5.2 12.2 0.00 0.00 0.00 67 1006.5
20260505024027 75 158 4.3 11.3 0.00 0.00 0.00 67 1006.4
20260505023021 75 165 4.3 11.3 0.00 0.00 0.00 66 1006.3
20260505022016 76 172 5.2 13.0 0.00 0.00 0.00 65 1006.2
20260505021026 76 148 3.5 14.8 0.00 0.00 0.00 65 1006.3
20260505020041 76 170 4.3 12.2 0.00 0.00 0.00 64 1006.2
20260505015056 76 148 4.3 15.6 0.00 0.00 0.00 64 1006.3
20260505014025 77 151 3.5 9.6 0.00 0.00 0.00 63 1006.3
20260505013020 77 155 2.6 8.7 0.00 0.00 0.00 62 1006.2
20260505012029 77 144 3.5 7.0 0.00 0.00 0.00 61 1006.2
20260505011024 78 163 3.5 8.7 0.00 0.00 0.00 60 1006.2
20260505010019 78 158 2.6 8.7 0.00 0.00 0.00 60 1006.3
20260505005029 79 157 4.3 9.6 0.00 0.00 0.00 59 1006.2
20260505004044 79 167 4.3 15.6 0.00 0.00 0.00 58 1006.4
20260505003019 80 140 3.5 11.3 0.00 0.00 0.00 57 1006.4
20260505002050 80 160 4.3 13.0 0.00 0.00 0.00 55 1006.5
20260505001024 81 157 5.2 11.3 0.00 0.00 0.00 54 1006.7
20260505000020 82 171 4.3 11.3 0.00 0.00 0.00 53 1006.9
20260504235030 82 180 6.1 14.8 0.00 0.00 0.00 53 1006.7
20260504234025 83 178 5.2 13.9 0.00 0.00 0.00 52 1006.9
20260504233019 83 171 4.3 16.5 0.00 0.00 0.00 51 1006.9
20260504232030 83 161 6.1 15.6 0.00 0.00 0.00 50 1007.0
20260504231024 84 168 5.2 15.6 0.00 0.00 0.00 49 1007.0
20260504230019 84 159 6.1 15.6 0.00 0.00 0.00 49 1007.2
20260504225029 85 154 4.3 13.9 0.00 0.00 0.00 48 1007.2